Torna al catalogo

STARLINK-35823

AttivoComunicazioniVLEO
NORAD 66360·PAYLOAD·🇺🇸 United States

Lanciato Nov 6, 2025 da Vandenberg Space Force Base

Loading…

Prossimi Passaggi (prossime 24 ore)

TLE

AggiornatoSource: CelesTrak SupGP

Epoca: Sep 15, 2026, 03:38 UTC

1 66360C 25254N   26258.15187500 -.00026553  00000+0 -78468-3 0  2585
2 66360  53.1578  70.3855 0001172  87.7566 206.8843 15.34397730    14

Traccia STARLINK-35823 in tempo reale con AllMySat

Download on the App Store